Location: Góry Miechowskie
(50.3599°N, 20.1803°E)
Time: 10:47:50
(UTC+00:00)

deb Explorer IX - All Passes

Search period start: 07 September 2024 00:00
Search period end: 17 September 2024 00:00
Orbit: 507 x 852 km, 38.7° (Epoch: 03 September)

Date Brightness Start Highest point End Pass type
(mag) Time Alt. Az. Time Alt. Az. Time Alt. Az.
07 Sep - 01:24:06 10° SW 01:27:13 17° SSW 01:30:09 10° SSE visible
07 Sep - 22:33:27 10° SSW 22:37:09 19° S 22:40:39 10° SE night (unlit)
08 Sep - 00:16:14 10° SW 00:19:57 20° S 00:23:25 10° SE night (unlit)
08 Sep - 02:00:49 10° SW 02:02:31 12° SSW 02:04:10 10° S visible
08 Sep - 21:26:25 10° SSW 21:29:45 16° SSE 21:32:55 10° SE night (unlit)
08 Sep - 23:08:30 10° SW 23:12:32 22° S 23:16:18 10° SE night (unlit)
09 Sep - 00:52:07 10° SW 00:55:15 17° SSW 00:58:13 10° SSE night (unlit)
09 Sep - 20:20:01 10° S 20:22:16 12° SSE 20:24:28 10° SE night (unlit)
09 Sep - 22:00:53 10° SW 22:04:59 21° S 22:08:51 10° ESE night (unlit)
09 Sep - 23:43:56 10° WSW 23:47:48 21° S 23:51:25 10° SE night (unlit)
10 Sep - 01:29:09 10° SW 01:30:19 11° SSW 01:31:28 10° SSW night (unlit)
10 Sep - 20:53:30 10° SSW 20:57:20 19° SSE 21:01:02 10° ESE night (unlit)
10 Sep - 22:35:55 10° SW 22:40:10 23° S 22:44:09 10° SE night (unlit)
11 Sep - 00:19:46 10° WSW 00:22:52 16° SSW 00:25:49 10° SSE night (unlit)
11 Sep - 19:46:29 10° S 19:49:38 15° SSE 19:52:42 10° SE visible
11 Sep - 21:28:01 10° SW 21:32:25 23° S 21:36:33 10° ESE night (unlit)
11 Sep - 23:11:16 10° WSW 23:15:14 21° SSW 23:18:57 10° SE night (unlit)
12 Sep - 18:40:49 10° SSE 18:41:55 10° SSE 18:42:59 10° SE visible
12 Sep - 20:20:18 10° SW 20:24:33 21° SSE 20:28:37 10° ESE visible
12 Sep - 22:02:59 10° WSW 22:07:24 24° S 22:11:33 10° SE night (unlit)
12 Sep - 23:47:05 10° WSW 23:50:04 15° SSW 23:52:55 10° SSE night (unlit)
13 Sep - 19:12:54 10° SSW 19:16:36 17° SSE 19:20:14 10° ESE visible
13 Sep - 20:54:50 10° SW 20:59:26 25° S 21:03:48 10° SE visible
13 Sep - 22:38:15 10° WSW 22:42:14 20° SSW 22:46:01 10° SSE night (unlit)
14 Sep - 18:06:10 10° S 18:08:39 13° SSE 18:11:06 10° SE visible
14 Sep - 19:46:50 10° SW 19:51:20 23° S 19:55:41 10° ESE visible
14 Sep - 21:29:43 10° WSW 21:34:13 24° S 21:38:30 10° SE night (unlit)
14 Sep - 23:14:05 10° SW 23:16:50 14° SSW 23:19:30 10° S night (unlit)
15 Sep - 18:39:07 10° SSW 18:43:11 19° SSE 18:47:12 10° ESE visible
15 Sep - 20:21:19 10° SW 20:26:02 25° S 20:30:33 10° SE visible
15 Sep - 22:04:53 10° WSW 22:08:49 19° SSW 22:12:35 10° SSE night (unlit)
16 Sep - 17:31:52 10° S 17:35:01 15° SSE 17:38:09 10° ESE visible
16 Sep - 19:13:05 10° SW 19:17:44 24° S 19:22:17 10° ESE visible
16 Sep - 20:56:06 10° WSW 21:00:37 23° S 21:04:57 10° SE visible
16 Sep - 22:40:49 10° SW 22:43:11 13° SSW 22:45:30 10° S night (unlit)
